Content
SEND FEEDBACK

Daily
Averages
Monthly
Summary
United States of America

SPRINGDALE, ARKANSAS


Home > North America > United States > Arkansas
Elevation: 412 meters     Latitude: 36 10N     Longitude: 094 07W

WEATHER
 
SELECT A DAY
Number of Records: 89,180;   Date Range: 1/2/95 - 11/25/14
 
SHARE

PRINT THIS DATA

[ ← Previous Day ]
WEATHER ALMANAC - 13 FEBRUARY, 2013
[ Next Day → ]
[ °F ]   °C
Weather ElementAverageHighLow
Temperature4.9 °C10 °C (2:48 pm)1 °C (5:49 am)
Dewpoint0.7 °C2 °C (9:48 am)-1 °C (7:48 am)
Humidity76.9 %100 % (5:49 am)50 % (3:48 pm)
Barometer1015.9 hPa1017.3 hPa (9:05 am)1014.2 hPa (3:48 pm)
Wind Speed14.2 km/h22.2 km/h (12:48 pm)
Wind Gust40.7 km/h (12:48 pm)
Weather ElementAverage
Visibility11.4 km
Wind DirectionWSW (257.9 °)

Weather ElementTotal
Precipitation---
Heating Degree Days12.8 (Base 18.3)
Averaged from 19 records on 13 February, 2013
WEATHER CONDITIONS BREAKOUT
WIND DIRECTION BREAKOUT
WEATHER BY HOUR - 13 FEBRUARY, 2013
[ °F ]   °C
Local TimeTemperatureDewpointHumidityBarometerVisibilityWind DirectionWind SpeedGust SpeedPrecipitationEventsConditions
5:49 AM1 °C1 °C100 %1015.2 hPa8 kmWNW (290°)11.1 km/hOvercast
6:48 AM1 °C1 °C100 %1015.9 hPa4.8 kmWest (280°)11.1 km/hFogFog
7:14 AM1 °C1 °C100 %1016.3 hPa2.4 kmWest (270°)11.1 km/hFogFog
7:48 AM1 °C-1 °C87 %1016.9 hPa0.8 kmWNW (290°)14.8 km/hFogFog
8:25 AM1 °C0 °C93 %1016.9 hPa2.9 kmWest (260°)9.3 km/hFogFog
8:48 AM2 °C0 °C87 %1016.9 hPa3.2 kmWest (260°)9.3 km/hFogFog
9:05 AM2 °C0 °C87 %1017.3 hPa4.8 kmWSW (240°)11.1 km/hFogFog
9:25 AM2 °C0 °C87 %1016.9 hPa14.5 kmWest (270°)13 km/hOvercast
9:48 AM2 °C2 °C100 %1016.9 hPa14.5 kmWest (260°)16.7 km/hMostly Cloudy
10:48 AM5 °C2 °C81 %1016.6 hPa16.1 kmWSW (240°)16.7 km/h27.8 km/hMostly Cloudy
11:48 AM7 °C2 °C71 %1015.9 hPa16.1 kmWest (270°)18.5 km/h37 km/hMostly Cloudy
12:48 PM7 °C2 °C71 %1015.6 hPa16.1 kmWSW (250°)22.2 km/h40.7 km/hScattered Clouds
1:48 PM9 °C2 °C62 %1015.2 hPa16.1 kmWSW (240°)18.5 km/h37 km/hPartly Cloudy
2:48 PM10 °C1 °C54 %1014.6 hPa16.1 kmWSW (250°)20.4 km/h38.9 km/hClear
3:48 PM10 °C0 °C50 %1014.2 hPa16.1 kmWest (260°)18.5 km/h37 km/hClear
4:48 PM10 °C0 °C50 %1014.2 hPa16.1 kmWest (260°)14.8 km/hClear
5:48 PM9 °C0 °C54 %1014.6 hPa16.1 kmWest (260°)11.1 km/hClear
7:48 PM7 °C0 °C61 %1014.9 hPa16.1 kmSW (230°)9.3 km/hClear
8:48 PM6 °C0 °C66 %1014.9 hPa16.1 kmSW (220°)11.1 km/hClear
Hourly data recorded from KASG, located 0 kilometers away from Springdale, Arkansas







STORIES FROM OUR PARTNERS